Regional Weather Roundup
Issued by NWS

Home | Current Version | Previous Version | Text Only | Print | Product List | Glossary Off
Versions: 1 2 3 4 5 6 7 8 9 10 11 12 13 14 15 16 17 18 19 20 21 22 23 24 25 26 27 28 29 30 31 32 33 34 35 36 37 38 39 40 41 42 43 44 45 46 47 48 49 50

000
ASUS43 KDMX 270407
RWRIA

WEATHER ROUNDUP FOR IOWA
NATIONAL WEATHER SERVICE DES MOINES IA
1000 PM CST THU FEB 26 2015

NOTE: "FAIR" INDICATES FEW OR NO CLOUDS BELOW 12,000 FEET WITH NO
SIGNIFICANT WEATHER AND/OR OBSTRUCTIONS TO VISIBILITY.

* - THESE STATIONS ARE NOT NWS STATIONS...THUS NOT UNDER NWS
QUALITY CONTROL.  THEY ALSO DO NOT REPORT WEATHER SUCH
AS PRECIPITATION OR FOG.

IAZ001>003-012>014-020>022-031>034-043>046-270500-
   NORTHWEST IOWA

CITY           SKY/WX    TMP DP  RH WIND       PRES   REMARKS
CARROLL *      CLEAR     -2  -9  71 NW12      30.54R WCI -20
CHEROKEE *     CLEAR     -4  -8  84 NW3       30.55R
DENISON *      CLEAR     -6 -11  77 CALM      30.54R
LE MARS *      CLEAR     -4  -9  77 NW6       30.57R WCI -16
ORANGE CITY *  CLEAR     -2  -8  78 NW3       30.52R
SHELDON *      PTCLDY    -9 -15  77 NW6       30.51R WCI -23
SIOUX CITY     CLEAR      3  -5  69 N10       30.58R WCI -12
SPENCER        CLEAR    -11 -17  75 W3        30.52R
STORM LAKE *   CLEAR     -4 -11  71 NW8       30.52R WCI -19
$$

IAZ055>058-069>071-079>083-090>094-270500-
   SOUTHWEST IOWA

CITY           SKY/WX    TMP DP  RH WIND       PRES   REMARKS
ATLANTIC *     CLEAR     -4  -9  77 CALM      30.56R
AUDUBON *      CLEAR     -6 -11  77 CALM      30.54R
CLARINDA *     CLEAR      1  -4  78 N5        30.60R WCI  -8
COUNCIL BLFS * CLEAR      3  -4  72 CALM      30.55R
CRESTON *      CLEAR     -2  -9  71 NW5       30.54R WCI -12
HARLAN  *      CLEAR     -6  -9  84 CALM      30.59R
LAMONI         CLEAR      1  -6  72 NW10      30.54R WCI -15
RED OAK *      CLEAR      1  -4  78 N5        30.58R WCI  -8
SHENANDOAH *   CLEAR      1  -4  78 CALM      30.60R
$$

IAZ047>049-059>061-072>074-084-270500-
   CENTRAL IOWA

CITY           SKY/WX    TMP DP  RH WIND       PRES   REMARKS
AMES           CLEAR     -2  -9  72 NW7       30.55R WCI -15
ANKENY *       CLEAR      1  -8  66 NW8       30.56R WCI -12
CHARITON *     CLEAR      0  -8  71 W7        30.54R WCI -13
DES MOINES     CLEAR      2  -6  69 NW5       30.55R WCI  -8
GRINNELL*      CLEAR     -8 -11  84 NW7       30.53R WCI -22
KNOXVILLE *    PTCLDY    -2 -11  65 NW6       30.54R WCI -14
MARSHALLTOWN   CLEAR    -11 -14  86 NW9       30.52R WCI -29
PELLA *        CLEAR     -4  -8  84 NW5       30.56R WCI -15
PERRY *          N/A     -4  -8  84 NW5       30.55R WCI -15
$$

IAZ004>006-015-016-023>025-035-036-270500-
   NORTH CENTRAL IOWA

CITY           SKY/WX    TMP DP  RH WIND       PRES   REMARKS
ALGONA *       CLEAR    -11 -15  84 NW9       30.53R WCI -29
CLARION *      CLEAR     -9 -15  77 NW9       30.52S WCI -27
ESTHERVILLE    CLEAR     -9 -14  78 NW8       30.50R WCI -25
FORT DODGE *   CLEAR     -9 -15  77 CALM      30.54R
MASON CITY     CLEAR    -11 -15  82 W10       30.51R WCI -30
FOREST CITY *  CLEAR     -8 -13  77 W6        30.50R WCI -21
IOWA FALLS *     N/A    -11 -17  77 NW7       30.52R WCI -26
$$

IAZ007>011-017>019-026>030-037>042-050>054-066-270500-
   NORTHEAST IOWA

CITY           SKY/WX    TMP DP  RH WIND       PRES   REMARKS
CEDAR RAPIDS   CLEAR     -8 -13  78 NW8       30.50R WCI -24
CHARLES CITY * CLEAR     -9 -15  77 W9        30.50R WCI -27
CLINTON *      CLEAR     -8 -17  65 NW8       30.49S WCI -23
DECORAH *      PTCLDY    -4 -11  71 W3        30.45R
DUBUQUE        CLEAR      1  -9  62 NW13      30.44R WCI -17
MONTICELLO *   CLEAR     -2 -11  65 NW9       30.49R WCI -18
OELWEIN *      CLEAR     -9 -17  70 NW10      30.49R WCI -28
WATERLOO         N/A     -6 -11  79 NW6       30.52R WCI -19
$$

IAZ064-065-067-068-078-270500-
   EAST CENTRAL IOWA

CITY           SKY/WX    TMP DP  RH WIND       PRES   REMARKS
DAVENPORT      CLEAR    -10 -17  71 W10       30.49R WCI -29
IOWA CITY      CLEAR     -1  -9  68 NW10      30.54R WCI -17
MT. PLEASANT * CLEAR      0  -8  71 NW8       30.53R WCI -15
MUSCATINE *    CLEAR     -2  -9  71 NW12      30.54S WCI -20
QUAD CITIES    CLEAR      2  -8  63 W7        30.50R WCI -11
$$

IAZ062-063-075>077-085>089-095>099-270500-
   SOUTHEAST IOWA

CITY           SKY/WX    TMP DP  RH WIND       PRES   REMARKS
BURLINGTON     CLEAR      0  -8  69 NW9       30.52R WCI -15
FAIRFIELD *    CLEAR     -4 -13  65 NW10      30.54R WCI -21
FORT MADISON * CLEAR      0  -8  71 NW9       30.53R WCI -16
KEOKUK *       CLEAR      1  -6  71 NW10      30.53R WCI -14
OSKALOOSA *      N/A     -6 -11  77 NW7       30.55R WCI -20
CENTERVILLE *  CLEAR     -2  -8  78 NW7       30.55R WCI -16
OTTUMWA        CLEAR     -2  -9  72 NW12      30.54R WCI -20
WASHINGTON *   CLEAR     -4  -8  84 NW10      30.54R WCI -21
$$

ABBREVIATIONS USED IN REMARKS
   TC - TEMPERATURES IN CELSIUS
  WCI - WIND CHILL INDEX
   HX - HEAT INDEX
  VSB - VISIBILITY
$$




USA.gov is the U.S. government's official web portal to all federal, state and local government web resources and services.